Weather History for KDUB - February, 2014

Change the Weather History Date:

Sunday, February 2, 2014

  Actual Average (KJAC) Record (KJAC)
Temperature  
Mean Temperature 16 °F -  
Max Temperature 26 °F 27 °F 42 °F (1989)
Min Temperature 6 °F 0 °F -28 °F (1972)
Degree Days  
Heating Degree Days 49    
Moisture  
Dew Point 3 °F    
Average Humidity 58    
Maximum Humidity 73    
Minimum Humidity 40    
Precipitation  
Precipitation 0.00 in - - ()
Sea Level Pressure  
Sea Level Pressure 29.80 in    
Wind  
Wind Speed 16 mph (NW)    
Max Wind Speed 26 mph    
Max Gust Speed 32 mph    
Visibility 10 miles    
Events      
Averages and records for this station are not official NWS values.
T = Trace of Precipitation, MM = Missing Value Source: NWS Daily Summary

Daily Weather History Graph

Daily Weather History Graph

Search for Another Location

Airport or City:

Trip Planner

Search our weather history database for the weather conditions in past years. The results will help you decide how hot, cold, wet, or windy it might be!

Date:

Astronomy

Feb. 02, 2014 Rise Set
Actual Time 7:33 AM MST 5:31 PM MST
Civil Twilight 7:03 AM MST 6:02 PM MST
Nautical Twilight 6:29 AM MST 6:36 PM MST
Astronomical Twilight 5:55 AM MST 7:09 PM MST
Moon 8:55 AM MST 9:28 PM MST
Length of Visible Light 10h 58m
Length of Day
9h 57m
Waxing Crescent, 12% of the Moon is Illuminated
Feb 2
Waxing Crescent
Feb 6
First Quarter
Feb 14
Full
Feb 22
Last Quarter
Mar 1
New

Hourly Weather History & Observations

Time (MST) Temp. Windchill Dew Point Humidity Pressure Visibility Wind Dir Wind Speed Gust Speed Precip Events Conditions
12:15 AM 6.8 °F -11.8 °F -0.4 °F 72% 29.89 in 10.0 mi NW 17.3 mph 20.7 mph N/A   Mostly Cloudy
12:35 AM 8.6 °F -7.7 °F -0.4 °F 67% 29.89 in 10.0 mi NNW 13.8 mph - N/A   Overcast
12:55 AM 8.6 °F -6.3 °F -0.4 °F 67% 29.89 in 10.0 mi NNW 11.5 mph - N/A   Overcast
1:15 AM 10.4 °F -4.1 °F 1.4 °F 67% 29.88 in 10.0 mi NNW 11.5 mph - N/A   Overcast
1:35 AM 10.4 °F -4.8 °F 1.4 °F 67% 29.87 in 10.0 mi NNW 12.7 mph - N/A   Overcast
1:55 AM 12.2 °F -1.0 °F 1.4 °F 62% 29.87 in 10.0 mi NNW 10.4 mph - N/A   Overcast
2:15 AM 12.2 °F -1.8 °F 1.4 °F 62% 29.87 in 10.0 mi NNW 11.5 mph - N/A   Overcast
2:35 AM 12.2 °F -1.0 °F 1.4 °F 62% 29.86 in 10.0 mi NNW 10.4 mph - N/A   Mostly Cloudy
2:55 AM 12.2 °F -3.7 °F 1.4 °F 62% 29.85 in 10.0 mi NW 15.0 mph 20.7 mph N/A   Scattered Clouds
3:15 AM 14.0 °F -3.4 °F 1.4 °F 57% 29.85 in 10.0 mi NW 19.6 mph 24.2 mph N/A   Clear
3:35 AM 14.0 °F -3.0 °F 1.4 °F 57% 29.84 in 10.0 mi NW 18.4 mph 26.5 mph N/A   Clear
3:55 AM 14.0 °F -2.5 °F 1.4 °F 57% 29.84 in 10.0 mi NNW 17.3 mph 28.8 mph N/A   Clear
4:15 AM 14.0 °F -2.0 °F 1.4 °F 57% 29.84 in 10.0 mi NNW 16.1 mph 24.2 mph N/A   Clear
4:35 AM 12.2 °F -4.3 °F -0.4 °F 57% 29.84 in 10.0 mi NNW 16.1 mph 20.7 mph N/A   Scattered Clouds
4:55 AM 14.0 °F -3.0 °F 1.4 °F 57% 29.84 in 10.0 mi NW 18.4 mph 25.3 mph N/A   Scattered Clouds
5:10 AM 14.0 °F -4.3 °F 1.4 °F 57% 29.85 in 10.0 mi WNW 21.9 mph 27.6 mph N/A   Scattered Clouds
5:35 AM 14.0 °F -4.3 °F 1.4 °F 57% 29.84 in 10.0 mi NW 21.9 mph - N/A   Clear
5:55 AM 14.0 °F -5.1 °F 1.4 °F 57% 29.84 in 10.0 mi NW 24.2 mph 31.1 mph N/A   Clear
6:15 AM 14.0 °F -5.8 °F 1.4 °F 57% 29.84 in 10.0 mi NW 26.5 mph 32.2 mph N/A   Clear
6:35 AM 14.0 °F -4.3 °F 1.4 °F 57% 29.83 in 10.0 mi NNW 21.9 mph 29.9 mph N/A   Clear
6:55 AM 12.2 °F -6.7 °F 1.4 °F 62% 29.83 in 10.0 mi NW 21.9 mph 27.6 mph N/A   Clear
7:15 AM 12.2 °F -7.1 °F 1.4 °F 62% 29.84 in 10.0 mi NW 23.0 mph 31.1 mph N/A   Clear
7:35 AM 12.2 °F -4.8 °F 1.4 °F 62% 29.84 in 10.0 mi NNW 17.3 mph 27.6 mph N/A   Clear
7:55 AM 12.2 °F -3.7 °F 1.4 °F 62% 29.85 in 10.0 mi NNW 15.0 mph 23.0 mph N/A   Clear
8:15 AM 14.0 °F -3.4 °F 3.2 °F 62% 29.85 in 10.0 mi NNW 19.6 mph 26.5 mph N/A   Clear
8:35 AM 14.0 °F -3.4 °F 3.2 °F 62% 29.85 in 10.0 mi NNW 19.6 mph 26.5 mph N/A   Clear
8:55 AM 15.8 °F 0.3 °F 3.2 °F 58% 29.86 in 10.0 mi NNW 16.1 mph 26.5 mph N/A   Clear
9:15 AM 17.6 °F 1.7 °F 3.2 °F 53% 29.86 in 10.0 mi NNW 18.4 mph 25.3 mph N/A   Clear
9:35 AM 17.6 °F 1.3 °F 3.2 °F 53% 29.86 in 10.0 mi NNW 19.6 mph 27.6 mph N/A   Clear
9:55 AM 19.4 °F 4.5 °F 3.2 °F 49% 29.86 in 10.0 mi NNW 17.3 mph 27.6 mph N/A   Clear
10:15 AM 19.4 °F 4.5 °F 3.2 °F 49% 29.86 in 10.0 mi NW 17.3 mph 26.5 mph N/A   Clear
10:35 AM 19.4 °F 4.5 °F 3.2 °F 49% 29.86 in 10.0 mi NW 17.3 mph - N/A   Clear
10:55 AM 21.2 °F 7.3 °F 3.2 °F 46% 29.85 in 10.0 mi NNW 16.1 mph 23.0 mph N/A   Clear
11:15 AM 21.2 °F 7.3 °F 3.2 °F 46% 29.85 in 10.0 mi NW 16.1 mph 25.3 mph N/A   Clear
11:35 AM 23.0 °F 10.1 °F 3.2 °F 43% 29.84 in 10.0 mi NW 15.0 mph 20.7 mph N/A   Clear
11:55 AM 23.0 °F 10.1 °F 3.2 °F 43% 29.83 in 10.0 mi NW 15.0 mph 26.5 mph N/A   Clear
12:15 PM 23.0 °F 8.7 °F 3.2 °F 43% 29.82 in 10.0 mi WNW 18.4 mph 26.5 mph N/A   Clear
12:35 PM 24.8 °F 12.4 °F 3.2 °F 40% 29.80 in 10.0 mi NW 15.0 mph 20.7 mph N/A   Clear
12:55 PM 23.0 °F 10.1 °F 5.0 °F 46% 29.79 in 10.0 mi NNW 15.0 mph 24.2 mph N/A   Clear
1:10 PM 24.8 °F 11.5 °F 5.0 °F 43% 29.78 in 10.0 mi NNW 17.3 mph - N/A   Clear
1:35 PM 24.8 °F 12.9 °F 5.0 °F 43% 29.76 in 10.0 mi NW 13.8 mph 19.6 mph N/A   Clear
1:55 PM 24.8 °F 11.1 °F 5.0 °F 43% 29.74 in 10.0 mi NNW 18.4 mph 26.5 mph N/A   Clear
2:15 PM 26.6 °F 13.8 °F 5.0 °F 40% 29.74 in 10.0 mi NNW 17.3 mph 27.6 mph N/A   Clear
2:35 PM 24.8 °F 11.5 °F 5.0 °F 43% 29.74 in 10.0 mi NNW 17.3 mph 27.6 mph N/A   Clear
2:55 PM 24.8 °F 12.9 °F 5.0 °F 43% 29.74 in 10.0 mi NW 13.8 mph 23.0 mph N/A   Clear
3:15 PM 24.8 °F 11.5 °F 5.0 °F 43% 29.74 in 10.0 mi NNW 17.3 mph 21.9 mph N/A   Clear
3:30 PM 24.8 °F 12.9 °F 5.0 °F 43% 29.74 in 10.0 mi NW 13.8 mph 19.6 mph N/A   Clear
3:55 PM 23.0 °F 9.6 °F 5.0 °F 46% 29.75 in 10.0 mi NNW 16.1 mph 20.7 mph N/A   Clear
4:15 PM 23.0 °F 10.1 °F 5.0 °F 46% 29.75 in 10.0 mi NW 15.0 mph 21.9 mph N/A   Clear
4:35 PM 21.2 °F 7.3 °F 5.0 °F 50% 29.75 in 10.0 mi NW 16.1 mph 20.7 mph N/A   Clear
4:55 PM 19.4 °F 3.6 °F 5.0 °F 54% 29.76 in 10.0 mi NW 19.6 mph - N/A   Clear
5:15 PM 19.4 °F 5.0 °F 6.8 °F 58% 29.76 in 10.0 mi WNW 16.1 mph 23.0 mph N/A   Clear
5:35 PM 17.6 °F 3.7 °F 5.0 °F 58% 29.76 in 10.0 mi WNW 13.8 mph - N/A   Clear
5:55 PM 15.8 °F 0.9 °F 5.0 °F 62% 29.77 in 10.0 mi West 15.0 mph - N/A   Clear
6:15 PM 14.0 °F -0.2 °F 5.0 °F 67% 29.78 in 10.0 mi WNW 12.7 mph - N/A   Clear
6:30 PM 12.2 °F -1.0 °F 5.0 °F 73% 29.77 in 10.0 mi WNW 10.4 mph - N/A   Clear
6:55 PM 14.0 °F 1.2 °F 5.0 °F 67% 29.77 in 10.0 mi WNW 10.4 mph - N/A   Clear
7:15 PM 14.0 °F -0.2 °F 3.2 °F 62% 29.76 in 10.0 mi West 12.7 mph - N/A   Clear
7:30 PM 12.2 °F 1.7 °F 3.2 °F 67% 29.76 in 10.0 mi NW 6.9 mph - N/A   Clear
7:55 PM 10.4 °F -3.3 °F 3.2 °F 73% 29.76 in 10.0 mi WNW 10.4 mph - N/A   Clear
8:15 PM 12.2 °F -2.5 °F 3.2 °F 67% 29.75 in 10.0 mi NW 12.7 mph - N/A   Clear
8:35 PM 12.2 °F -2.5 °F 3.2 °F 67% 29.75 in 10.0 mi NW 12.7 mph - N/A   Clear
8:50 PM 12.2 °F -3.1 °F 3.2 °F 67% 29.75 in 10.0 mi NW 13.8 mph - N/A   Clear
9:15 PM 10.4 °F -5.4 °F 1.4 °F 67% 29.75 in 10.0 mi NW 13.8 mph - N/A   Clear
9:35 PM 10.4 °F -4.1 °F 1.4 °F 67% 29.75 in 10.0 mi NW 11.5 mph - N/A   Clear
9:55 PM 10.4 °F -4.1 °F 1.4 °F 67% 29.75 in 10.0 mi NW 11.5 mph - N/A   Clear
10:15 PM 8.6 °F -7.0 °F 1.4 °F 73% 29.75 in 10.0 mi NW 12.7 mph - N/A   Clear
10:35 PM 8.6 °F -7.7 °F 1.4 °F 73% 29.74 in 10.0 mi NW 13.8 mph - N/A   Clear
10:55 PM 8.6 °F -8.9 °F 1.4 °F 73% 29.74 in 10.0 mi NNW 16.1 mph 20.7 mph N/A   Clear
11:15 PM 10.4 °F -5.4 °F 1.4 °F 67% 29.74 in 10.0 mi NNW 13.8 mph - N/A   Clear
11:35 PM 8.6 °F -7.0 °F 1.4 °F 73% 29.73 in 10.0 mi NNW 12.7 mph 18.4 mph N/A   Clear
11:55 PM 10.4 °F -6.0 °F 1.4 °F 67% 29.74 in 10.0 mi NNW 15.0 mph 18.4 mph N/A   Clear